Location: Sewell
(39.7660°N, 75.1450°W)
Time: 17:37:07
(UTC-04:00)

ISS - Visible Passes

Search period start: 31 July 2014 00:00
Search period end: 10 August 2014 00:00
Orbit: 411 x 419 km, 51.6° (Epoch: 31 July)

Date Brightness Start Highest point End Pass type
(mag) Time Alt. Az. Time Alt. Az. Time Alt. Az.
31 Jul 0.1 02:09:55 11° NNW 02:10:39 11° N 02:11:44 10° NNE visible
31 Jul -0.1 03:46:23 10° NNW 03:48:29 15° NNE 03:50:36 10° NE visible
31 Jul -2.6 05:22:24 10° NW 05:25:45 62° NE 05:29:04 10° ESE visible
01 Aug 0.3 01:22:53 10° NNE 01:22:53 10° NNE 01:22:58 10° NNE visible
01 Aug 0.0 02:57:46 10° NNW 02:59:23 13° NNE 03:01:01 10° NE visible
01 Aug -1.6 04:33:41 10° NW 04:36:51 37° NNE 04:40:00 10° E visible
01 Aug -1.2 21:16:26 10° S 21:17:03 13° SSE 21:17:03 13° SSE visible
02 Aug 0.2 02:09:03 10° NNW 02:10:14 11° N 02:11:26 10° NNE visible
02 Aug -0.9 03:45:01 10° NNW 03:47:53 25° NNE 03:50:44 10° E visible
02 Aug -2.9 05:21:29 10° WNW 05:24:43 45° SW 05:27:56 10° SSE visible
02 Aug -3.4 22:02:52 10° SW 22:06:11 90° SE 22:07:59 25° NE visible
02 Aug 0.0 23:40:54 10° WNW 23:41:08 11° WNW 23:41:08 11° WNW visible
03 Aug -0.4 02:56:22 10° NNW 02:58:50 19° NNE 03:01:18 10° ENE visible
03 Aug -3.4 04:32:33 10° NW 04:35:55 84° SW 04:39:16 10° SE visible
03 Aug -3.1 21:14:10 10° SSW 21:17:22 48° SE 21:20:36 10° ENE visible
03 Aug -0.9 22:51:27 10° W 22:54:14 24° NNW 22:57:00 10° NNE visible
04 Aug -2.6 03:46:03 38° NNW 03:47:02 55° NE 03:50:20 10° ESE visible
04 Aug -1.6 05:21:20 10° W 05:23:26 16° SW 05:25:32 10° S visible
04 Aug -1.6 22:02:09 10° W 22:05:14 35° NNW 22:08:21 10° NE visible
04 Aug 0.1 23:41:11 10° NW 23:42:43 13° N 23:43:47 11° N visible
05 Aug -1.0 04:37:07 13° S 04:37:07 13° S 04:37:39 10° SSE visible
05 Aug -2.6 21:13:01 10° WSW 21:16:17 57° NW 21:19:35 10° NE visible
05 Aug -0.1 22:51:33 10° NW 22:53:34 15° NNW 22:55:35 10° NNE visible
06 Aug -0.4 22:01:59 10° WNW 22:04:27 19° NNW 22:06:56 10° NNE visible
06 Aug 0.1 23:41:16 10° NNW 23:42:13 11° N 23:42:38 11° N visible
07 Aug -0.9 21:12:32 10° W 21:15:23 26° NNW 21:18:15 10° NNE visible
07 Aug 0.0 22:51:49 10° NNW 22:53:00 11° N 22:54:11 10° NNE visible
08 Aug -0.2 22:02:11 10° NW 22:03:48 13° NNW 22:05:26 10° NNE visible
08 Aug 0.2 23:40:16 10° NNW 23:40:57 12° N 23:40:57 12° N visible
09 Aug -0.3 21:12:31 10° NW 21:14:38 16° NNW 21:16:44 10° NNE visible
09 Aug -0.1 22:51:26 10° NNW 22:52:27 11° N 22:53:29 10° NNE visible
